This demonstration page uses our WeatherBlox Daily Observations layout. Learn more.

Left ArrowRight Arrow

Hourly Observations for August 17, 2019

Temp ( °F °C ) Dew Point ( °F °C ) Humidity (%) Winds ( mph kmh ) Pressure ( in mb ) Visibility ( mi km ) Precip ( " mm )
12:56 am 00:56 Mostly Cloudy 73 23 70 21 89 89 NE 5 7 29.82 1010 10 16 0.00 0.00
1:56 am 01:56 Mostly Cloudy 73 23 68 20 83 83 ENE 6 9 29.79 1009 10 16 0.00 0.00
2:56 am 02:56 Cloudy 72 22 70 21 94 94 E 5 7 29.78 1009 10 16 0.00 0.00
3:56 am 03:56 Cloudy 73 23 70 21 89 89 ESE 9 15 29.83 1010 10 16 0.00 0.00
4:56 am 04:56 Cloudy 73 23 70 21 89 89 SE 7 11 29.85 1011 10 16 0.00 0.00
5:17 am 05:17 Cloudy with Light Showers 73 23 70 21 89 89 SE 6 9 29.82 1010 5 8 0.00 0.00
5:48 am 05:48 Cloudy 73 23 70 21 89 89 ENE 6 9 29.77 1008 10 16 0.00 0.00
5:56 am 05:56 Cloudy 72 22 70 21 94 94 ESE 6 9 29.78 1009 10 16 0.00 0.00
6:56 am 06:56 Cloudy 70 21 66 19 88 88 S 6 9 29.82 1010 10 16 0.00 0.00
7:56 am 07:56 Cloudy 70 21 66 19 88 88 S 8 13 29.83 1010 10 16 0.00 0.00
8:56 am 08:56 Cloudy 70 21 66 19 88 88 SSE 7 11 29.83 1010 10 16 0.00 0.00
9:56 am 09:56 Mostly Cloudy 73 23 66 19 78 78 SSE 9 15 29.81 1010 10 16 0.00 0.00
10:56 am 10:56 Partly Cloudy 77 25 66 19 69 69 S 8 13 29.80 1009 10 16 0.00 0.00
11:56 am 11:56 Partly Cloudy 79 26 66 19 65 65 S 10 17 29.80 1009 10 16 0.00 0.00
12:10 pm 12:10 Mostly Cloudy 79 26 66 19 65 65 S 12 19 29.80 1009 10 16 0.00 0.00
12:56 pm 12:56 Mostly Cloudy 81 27 66 19 62 62 S 12 19 29.80 1009 2 3 0.00 0.00
1:56 pm 13:56 Mostly Cloudy 81 27 68 20 66 66 S 10 17 29.79 1009 10 16 0.00 0.00
2:56 pm 14:56 Partly Cloudy 82 28 68 20 62 62 SSE 12 19 29.76 1008 10 16 0.00 0.00
3:56 pm 15:56 Sunny 84 29 68 20 58 58 SSE 13 20 29.74 1007 10 16 0.00 0.00
4:56 pm 16:56 Sunny 84 29 70 21 62 62 SE 14 22 29.72 1007 10 16 0.00 0.00
5:56 pm 17:56 Mostly Sunny 84 29 70 21 62 62 SE 14 22 29.71 1006 10 16 0.00 0.00
6:56 pm 18:56 Sunny N/A N/A N/A ESE 15 24 N/A 10 16 0.00 0.00
7:56 pm 19:56 Sunny 82 28 73 23 74 74 SSE 10 17 29.70 1006 10 16 0.00 0.00
8:56 pm 20:56 Clear 81 27 73 23 79 79 SE 7 11 29.70 1006 10 16 0.00 0.00
9:56 pm 21:56 Clear 81 27 73 23 79 79 VRB 3 6 29.70 1006 10 16 0.00 0.00
10:56 pm 22:56 Clear 79 26 73 23 84 84 SSE 13 20 29.70 1006 10 16 0.00 0.00
11:56 pm 23:56 Clear 79 26 73 23 84 84 SSE 13 20 29.70 1006 10 16 0.00 0.00

Powered by AerisWeather